Time,TemperatureF,DewpointF,PressureIn,WindDirection,WindDirectionDegrees,WindSpeedMPH,WindSpeedGustMPH,Humidity,HourlyPrecipIn,Conditions,Clouds,dailyrainin,SoftwareType,DateUTC
2013-05-11 00:02:00,62.0,-99.9,-100.00,North,-999,-999.0,-999.0,-999,0.00,,,-99.99,,2013-05-11 06:02:00,
2013-05-11 00:12:00,62.0,-99.9,-100.00,North,-999,-999.0,-999.0,-999,0.00,,,-99.99,,2013-05-11 06:12:00,
2013-05-11 00:22:00,62.0,-99.9,-100.00,North,-999,-999.0,-999.0,-999,0.00,,,-99.99,,2013-05-11 06:22:00,
2013-05-11 00:30:00,60.0,-99.9,-100.00,North,-999,-999.0,-999.0,-999,0.00,,,0.00,,2013-05-11 06:30:00,
2013-05-11 01:02:00,60.0,-99.9,-100.00,North,-999,-999.0,-999.0,-999,0.00,,,0.00,,2013-05-11 07:02:00,
2013-05-11 01:12:00,60.0,-99.9,-100.00,North,-999,-999.0,-999.0,-999,0.00,,,0.00,,2013-05-11 07:12:00,
2013-05-11 01:22:00,60.0,-99.9,-100.00,North,-999,-999.0,-999.0,-999,0.00,,,0.00,,2013-05-11 07:22:00,
2013-05-11 01:30:00,61.0,-99.9,-100.00,North,-999,-999.0,-999.0,-999,0.01,,,0.00,,2013-05-11 07:30:00,
2013-05-11 02:02:00,61.0,-99.9,-100.00,North,-999,-999.0,-999.0,-999,0.01,,,0.00,,2013-05-11 08:02:00,
2013-05-11 02:12:00,61.0,-99.9,-100.00,North,-999,-999.0,-999.0,-999,0.01,,,0.00,,2013-05-11 08:12:00,
2013-05-11 02:22:00,61.0,-99.9,-100.00,North,-999,-999.0,-999.0,-999,0.01,,,0.00,,2013-05-11 08:22:00,
2013-05-11 02:30:00,56.0,-99.9,-100.00,North,-999,-999.0,-999.0,-999,-99.99,,,0.00,,2013-05-11 08:30:00,
2013-05-11 03:01:00,56.0,-99.9,-100.00,North,-999,-999.0,-999.0,-999,-99.99,,,0.00,,2013-05-11 09:01:00,
2013-05-11 03:12:00,56.0,-99.9,-100.00,North,-999,-999.0,-999.0,-999,-99.99,,,0.00,,2013-05-11 09:12:00,
2013-05-11 03:22:00,56.0,-99.9,-100.00,North,-999,-999.0,-999.0,-999,-99.99,,,0.00,,2013-05-11 09:22:00,
2013-05-11 03:30:00,52.0,-99.9,-100.00,North,-999,-999.0,-999.0,-999,0.00,,,-99.99,,2013-05-11 09:30:00,
2013-05-11 04:03:00,52.0,-99.9,-100.00,North,-999,-999.0,-999.0,-999,0.00,,,-99.99,,2013-05-11 10:03:00,
2013-05-11 04:12:00,52.0,-99.9,-100.00,North,-999,-999.0,-999.0,-999,0.00,,,-99.99,,2013-05-11 10:12:00,
2013-05-11 04:23:00,52.0,-99.9,-100.00,North,-999,-999.0,-999.0,-999,0.00,,,-99.99,,2013-05-11 10:23:00,
2013-05-11 04:30:00,51.0,-99.9,-100.00,North,-999,-999.0,-999.0,-999,0.00,,,0.00,,2013-05-11 10:30:00,
2013-05-11 05:03:00,51.0,-99.9,-100.00,North,-999,-999.0,-999.0,-999,0.00,,,0.00,,2013-05-11 11:03:00,
2013-05-11 05:12:00,51.0,-99.9,-100.00,North,-999,-999.0,-999.0,-999,0.00,,,0.00,,2013-05-11 11:12:00,
2013-05-11 05:22:00,51.0,-99.9,-100.00,North,-999,-999.0,-999.0,-999,0.00,,,0.00,,2013-05-11 11:22:00,
2013-05-11 05:30:00,50.0,-99.9,-100.00,North,-999,-999.0,-999.0,-999,0.04,,,0.00,,2013-05-11 11:30:00,
2013-05-11 06:01:00,50.0,-99.9,-100.00,North,-999,-999.0,-999.0,-999,0.04,,,0.00,,2013-05-11 12:01:00,
2013-05-11 06:12:00,50.0,-99.9,-100.00,North,-999,-999.0,-999.0,-999,0.04,,,0.00,,2013-05-11 12:12:00,
2013-05-11 06:22:00,50.0,-99.9,-100.00,North,-999,-999.0,-999.0,-999,0.04,,,0.00,,2013-05-11 12:22:00,
2013-05-11 06:30:00,53.0,-99.9,-100.00,North,-999,-999.0,-999.0,-999,-99.99,,,0.00,,2013-05-11 12:30:00,
2013-05-11 07:02:00,53.0,-99.9,-100.00,North,-999,-999.0,-999.0,-999,-99.99,,,0.00,,2013-05-11 13:02:00,
2013-05-11 07:11:00,53.0,-99.9,-100.00,North,-999,-999.0,-999.0,-999,-99.99,,,0.00,,2013-05-11 13:11:00,
2013-05-11 07:22:00,53.0,-99.9,-100.00,North,-999,-999.0,-999.0,-999,-99.99,,,0.00,,2013-05-11 13:22:00,
2013-05-11 07:30:00,55.0,-99.9,-100.00,North,-999,-999.0,-999.0,-999,0.01,,,0.00,,2013-05-11 13:30:00,
2013-05-11 08:02:00,55.0,-99.9,-100.00,North,-999,-999.0,-999.0,-999,0.01,,,0.00,,2013-05-11 14:02:00,
2013-05-11 08:11:00,55.0,-99.9,-100.00,North,-999,-999.0,-999.0,-999,0.01,,,0.00,,2013-05-11 14:11:00,
2013-05-11 08:21:00,55.0,-99.9,-100.00,North,-999,-999.0,-999.0,-999,0.01,,,0.00,,2013-05-11 14:21:00,
2013-05-11 08:30:00,59.0,-99.9,-100.00,North,-999,-999.0,-999.0,-999,-99.99,,,-99.99,,2013-05-11 14:30:00,
2013-05-11 09:02:00,59.0,-99.9,-100.00,North,-999,-999.0,-999.0,-999,-99.99,,,-99.99,,2013-05-11 15:02:00,
2013-05-11 09:12:00,59.0,-99.9,-100.00,North,-999,-999.0,-999.0,-999,-99.99,,,-99.99,,2013-05-11 15:12:00,
2013-05-11 09:22:00,59.0,-99.9,-100.00,North,-999,-999.0,-999.0,-999,-99.99,,,-99.99,,2013-05-11 15:22:00,
2013-05-11 09:30:00,66.0,-99.9,-100.00,North,-999,-999.0,-999.0,-999,0.01,,,0.01,,2013-05-11 15:30:00,
2013-05-11 10:03:00,66.0,-99.9,-100.00,North,-999,-999.0,-999.0,-999,0.01,,,0.01,,2013-05-11 16:03:00,
2013-05-11 10:12:00,66.0,-99.9,-100.00,North,-999,-999.0,-999.0,-999,0.01,,,0.01,,2013-05-11 16:12:00,
2013-05-11 10:23:00,66.0,-99.9,-100.00,North,-999,-999.0,-999.0,-999,0.01,,,0.01,,2013-05-11 16:23:00,
2013-05-11 10:30:00,70.0,-99.9,-100.00,North,-999,-999.0,-999.0,-999,0.00,,,0.00,,2013-05-11 16:30:00,
2013-05-11 11:02:00,70.0,-99.9,-100.00,North,-999,-999.0,-999.0,-999,0.00,,,0.00,,2013-05-11 17:02:00,
2013-05-11 11:12:00,70.0,-99.9,-100.00,North,-999,-999.0,-999.0,-999,0.00,,,0.00,,2013-05-11 17:12:00,
2013-05-11 11:22:00,70.0,-99.9,-100.00,North,-999,-999.0,-999.0,-999,0.00,,,0.00,,2013-05-11 17:22:00,
2013-05-11 11:30:00,75.0,-99.9,-100.00,North,-999,-999.0,-999.0,-999,-99.99,,,-99.99,,2013-05-11 17:30:00,
2013-05-11 12:01:00,75.0,-99.9,-100.00,North,-999,-999.0,-999.0,-999,-99.99,,,-99.99,,2013-05-11 18:01:00,
2013-05-11 12:12:00,75.0,-99.9,-100.00,North,-999,-999.0,-999.0,-999,-99.99,,,-99.99,,2013-05-11 18:12:00,
2013-05-11 12:22:00,75.0,-99.9,-100.00,North,-999,-999.0,-999.0,-999,-99.99,,,-99.99,,2013-05-11 18:22:00,
2013-05-11 12:30:00,79.0,-99.9,-100.00,North,-999,-999.0,-999.0,-999,0.00,,,-99.99,,2013-05-11 18:30:00,
2013-05-11 13:02:00,79.0,-99.9,-100.00,North,-999,-999.0,-999.0,-999,0.00,,,-99.99,,2013-05-11 19:02:00,
2013-05-11 13:11:00,79.0,-99.9,-100.00,North,-999,-999.0,-999.0,-999,0.00,,,-99.99,,2013-05-11 19:11:00,
2013-05-11 13:22:00,79.0,-99.9,-100.00,North,-999,-999.0,-999.0,-999,0.00,,,-99.99,,2013-05-11 19:22:00,
2013-05-11 13:30:00,80.0,-99.9,-100.00,North,-999,-999.0,-999.0,-999,0.00,,,0.00,,2013-05-11 19:30:00,
2013-05-11 14:02:00,80.0,-99.9,-100.00,North,-999,-999.0,-999.0,-999,0.00,,,0.00,,2013-05-11 20:02:00,
2013-05-11 14:12:00,80.0,-99.9,-100.00,North,-999,-999.0,-999.0,-999,0.00,,,0.00,,2013-05-11 20:12:00,
2013-05-11 14:22:00,80.0,-99.9,-100.00,North,-999,-999.0,-999.0,-999,0.00,,,0.00,,2013-05-11 20:22:00,
2013-05-11 14:30:00,83.0,-99.9,-100.00,North,-999,-999.0,-999.0,-999,0.00,,,-99.99,,2013-05-11 20:30:00,
2013-05-11 15:02:00,83.0,-99.9,-100.00,North,-999,-999.0,-999.0,-999,0.00,,,-99.99,,2013-05-11 21:02:00,
2013-05-11 15:12:00,83.0,-99.9,-100.00,North,-999,-999.0,-999.0,-999,0.00,,,-99.99,,2013-05-11 21:12:00,
2013-05-11 15:22:00,83.0,-99.9,-100.00,North,-999,-999.0,-999.0,-999,0.00,,,-99.99,,2013-05-11 21:22:00,
2013-05-11 15:30:00,84.0,-99.9,-100.00,North,-999,-999.0,-999.0,-999,0.00,,,0.00,,2013-05-11 21:30:00,
2013-05-11 16:03:00,84.0,-99.9,-100.00,North,-999,-999.0,-999.0,-999,0.00,,,0.00,,2013-05-11 22:03:00,
2013-05-11 16:13:00,84.0,-99.9,-100.00,North,-999,-999.0,-999.0,-999,0.00,,,0.00,,2013-05-11 22:13:00,
2013-05-11 16:23:00,84.0,-99.9,-100.00,North,-999,-999.0,-999.0,-999,0.00,,,0.00,,2013-05-11 22:23:00,
2013-05-11 16:30:00,85.0,-99.9,-100.00,North,-999,-999.0,-999.0,-999,0.00,,,0.00,,2013-05-11 22:30:00,
2013-05-11 17:03:00,85.0,-99.9,-100.00,North,-999,-999.0,-999.0,-999,0.00,,,0.00,,2013-05-11 23:03:00,
2013-05-11 17:12:00,85.0,-99.9,-100.00,North,-999,-999.0,-999.0,-999,0.00,,,0.00,,2013-05-11 23:12:00,
2013-05-11 17:22:00,85.0,-99.9,-100.00,North,-999,-999.0,-999.0,-999,0.00,,,0.00,,2013-05-11 23:22:00,
2013-05-11 17:30:00,85.0,-99.9,-100.00,North,-999,-999.0,-999.0,-999,0.01,,,0.01,,2013-05-11 23:30:00,
2013-05-11 18:01:00,85.0,-99.9,-100.00,North,-999,-999.0,-999.0,-999,0.01,,,0.01,,2013-05-12 00:01:00,
2013-05-11 18:12:00,85.0,-99.9,-100.00,North,-999,-999.0,-999.0,-999,0.01,,,0.01,,2013-05-12 00:12:00,
2013-05-11 18:22:00,85.0,-99.9,-100.00,North,-999,-999.0,-999.0,-999,0.01,,,0.01,,2013-05-12 00:22:00,
2013-05-11 18:30:00,84.0,-99.9,-100.00,North,-999,-999.0,-999.0,-999,-99.99,,,0.00,,2013-05-12 00:30:00,
2013-05-11 19:02:00,84.0,-99.9,-100.00,North,-999,-999.0,-999.0,-999,-99.99,,,0.00,,2013-05-12 01:02:00,
2013-05-11 19:11:00,84.0,-99.9,-100.00,North,-999,-999.0,-999.0,-999,-99.99,,,0.00,,2013-05-12 01:11:00,
2013-05-11 19:22:00,84.0,-99.9,-100.00,North,-999,-999.0,-999.0,-999,-99.99,,,0.00,,2013-05-12 01:22:00,
2013-05-11 19:30:00,82.0,-99.9,-100.00,North,-999,-999.0,-999.0,-999,0.00,,,0.00,,2013-05-12 01:30:00,
2013-05-11 20:02:00,82.0,-99.9,-100.00,North,-999,-999.0,-999.0,-999,0.00,,,0.00,,2013-05-12 02:02:00,
2013-05-11 20:12:00,82.0,-99.9,-100.00,North,-999,-999.0,-999.0,-999,0.00,,,0.00,,2013-05-12 02:12:00,
2013-05-11 20:22:00,82.0,-99.9,-100.00,North,-999,-999.0,-999.0,-999,0.00,,,0.00,,2013-05-12 02:22:00,
2013-05-11 20:30:00,76.0,-99.9,-100.00,North,-999,-999.0,-999.0,-999,0.00,,,0.00,,2013-05-12 02:30:00,
2013-05-11 21:02:00,76.0,-99.9,-100.00,North,-999,-999.0,-999.0,-999,0.00,,,0.00,,2013-05-12 03:02:00,
2013-05-11 21:12:00,76.0,-99.9,-100.00,North,-999,-999.0,-999.0,-999,0.00,,,0.00,,2013-05-12 03:12:00,
2013-05-11 21:22:00,76.0,-99.9,-100.00,North,-999,-999.0,-999.0,-999,0.00,,,0.00,,2013-05-12 03:22:00,
2013-05-11 21:30:00,68.0,-99.9,-100.00,North,-999,-999.0,-999.0,-999,0.00,,,0.00,,2013-05-12 03:30:00,
2013-05-11 22:23:00,68.0,-99.9,-100.00,North,-999,-999.0,-999.0,-999,0.00,,,0.00,,2013-05-12 04:23:00,
2013-05-11 22:30:00,65.0,-99.9,-100.00,North,-999,-999.0,-999.0,-999,0.00,,,0.00,,2013-05-12 04:30:00,
2013-05-11 23:02:00,65.0,-99.9,-100.00,North,-999,-999.0,-999.0,-999,0.00,,,0.00,,2013-05-12 05:02:00,
2013-05-11 23:12:00,65.0,-99.9,-100.00,North,-999,-999.0,-999.0,-999,0.00,,,0.00,,2013-05-12 05:12:00,
2013-05-11 23:22:00,65.0,-99.9,-100.00,North,-999,-999.0,-999.0,-999,0.00,,,0.00,,2013-05-12 05:22:00,
2013-05-11 23:30:00,62.0,-99.9,-100.00,North,-999,-999.0,-999.0,-999,0.00,,,0.00,,2013-05-12 05:30:00,